User: anonymous   Login
Location: Kitchener
(43.4500°N, 80.5000°W)
Time: 19:45:47
(UTC-04:00)
Language:

Cosmos 1939 Rocket - Orbit

View from above orbital plane
View from above orbital plane
View from above satellite
View from above satellite

Ground track
Ground track

The orbit data is extracted from the following two-line orbital elements,

1 19046U 88032B   15085.10841271  .00002564  00000-0  20330-3 0  9992
2 19046 097.6216 139.2725 0041414 219.8432 139.9750 15.00774068450466
Epoch (UTC): 26 March 2015 02:36:06
Eccentricity: 0.0041414
inclination: 97.6216°
perigee height: 536 km
apogee height: 593 km
right ascension of ascending node: 139.2725°
argument of perigee: 219.8432°
revolutions per day: 15.00774068
mean anomaly at epoch: 139.9750°
orbit number at epoch: 45046

The dashed part of the orbit path shows where the satellite is in the earth's shadow,  

DLR